DAL9573 SKCL-SEQM

Flight info

Callsign DAL9573
Flight time N/A
Altitude 24000
Route CLO R567 PPN W48 MER G675 QIT DCT
Aircraft A319/M-V/N

Departure

Time 2026-04-25 16:14
Airport Alfonso Bonilla Aragon International Airport (SKCL)

Arrival

Time N/A
Airport Mariscal Sucre International Airport (SEQM)
Time Latitude Longitude Altitude Speed Heading
2026-04-25 16:02 3.53719 -76.38636 2437 ft 0 kts 334°
2026-04-25 16:07 3.53713 -76.38633 2437 ft 2 kts 334°
2026-04-25 16:07 3.53703 -76.38627 2437 ft 3 kts 323°
2026-04-25 16:07 3.53687 -76.38607 2437 ft 3 kts 293°
2026-04-25 16:07 3.53682 -76.38587 2437 ft 3 kts 271°
2026-04-25 16:08 3.53685 -76.38567 2437 ft 3 kts 258°
2026-04-25 16:08 3.53690 -76.38547 2437 ft 3 kts 245°
2026-04-25 16:08 3.53702 -76.38531 2437 ft 3 kts 222°
2026-04-25 16:08 3.53720 -76.38520 2437 ft 3 kts 200°
2026-04-25 16:09 3.53739 -76.38516 2437 ft 2 kts 182°
2026-04-25 16:09 3.53740 -76.38516 2437 ft 0 kts 182°
2026-04-25 16:11 3.53725 -76.38512 2437 ft 9 kts 144°
2026-04-25 16:11 3.53663 -76.38430 2437 ft 19 kts 121°
2026-04-25 16:11 3.53609 -76.38411 2437 ft 9 kts 203°
2026-04-25 16:11 3.53512 -76.38433 2437 ft 23 kts 190°
2026-04-25 16:12 3.53298 -76.38471 2437 ft 36 kts 190°
2026-04-25 16:12 3.53083 -76.38509 2437 ft 17 kts 190°
2026-04-25 16:12 3.52997 -76.38491 2437 ft 9 kts 112°
2026-04-25 16:12 3.52998 -76.38457 2437 ft 9 kts 81°
2026-04-25 16:13 3.53039 -76.38391 2437 ft 0 kts 10°
2026-04-25 16:13 3.53041 -76.38390 2437 ft 0 kts 10°
2026-04-25 16:13 3.53055 -76.38388 2437 ft 17 kts 10°
2026-04-25 16:13 3.53467 -76.38315 2437 ft 100 kts
2026-04-25 16:14 3.54385 -76.38166 2472 ft 161 kts 10°
2026-04-25 16:14 3.55487 -76.37969 3204 ft 162 kts 10°
2026-04-25 16:14 3.56698 -76.37748 3881 ft 195 kts 11°
2026-04-25 16:14 3.58103 -76.37440 4886 ft 214 kts 12°
2026-04-25 16:15 3.59585 -76.37132 6265 ft 222 kts 14°
2026-04-25 16:15 3.60923 -76.36314 7564 ft 233 kts 43°
2026-04-25 16:15 3.61735 -76.34902 8933 ft 240 kts 73°
2026-04-25 16:15 3.61783 -76.33225 10265 ft 246 kts 101°
2026-04-25 16:16 3.61044 -76.31692 11374 ft 247 kts 129°
2026-04-25 16:16 3.59670 -76.30674 12213 ft 250 kts 157°
2026-04-25 16:16 3.57948 -76.30428 12949 ft 255 kts 185°
2026-04-25 16:16 3.56248 -76.30982 13685 ft 261 kts 206°
2026-04-25 16:17 3.54627 -76.31850 14440 ft 267 kts 212°
2026-04-25 16:17 3.53017 -76.32787 15148 ft 275 kts 213°
2026-04-25 16:17 3.51329 -76.33791 15847 ft 283 kts 213°
2026-04-25 16:17 3.49618 -76.34815 16510 ft 290 kts 213°
2026-04-25 16:18 3.47882 -76.35859 17139 ft 298 kts 213°
2026-04-25 16:18 3.47278 -76.36224 17348 ft 301 kts 213°
2026-04-25 16:18 3.44233 -76.38076 18329 ft 315 kts 213°
2026-04-25 16:18 3.42341 -76.39240 18880 ft 323 kts 213°
2026-04-25 16:19 3.40392 -76.40432 19393 ft 333 kts 211°
2026-04-25 16:19 3.38178 -76.41209 19819 ft 344 kts 194°
2026-04-25 16:19 3.35798 -76.41635 20333 ft 351 kts 191°
2026-04-25 16:20 3.30905 -76.42636 21198 ft 367 kts 193°
2026-04-25 16:20 3.28408 -76.43187 21564 ft 376 kts 193°
2026-04-25 16:20 3.23146 -76.44335 22201 ft 393 kts 193°
2026-04-25 16:21 3.20479 -76.44917 22524 ft 400 kts 193°
2026-04-25 16:21 3.17748 -76.45513 22924 ft 404 kts 193°
2026-04-25 16:21 3.14997 -76.46114 23359 ft 406 kts 193°
2026-04-25 16:21 3.12230 -76.46718 23782 ft 408 kts 193°
2026-04-25 16:22 3.09444 -76.47327 24052 ft 411 kts 193°
2026-04-25 16:22 3.06615 -76.47945 24124 ft 420 kts 193°
2026-04-25 16:22 3.03719 -76.48577 24142 ft 430 kts 193°
2026-04-25 16:22 3.00765 -76.49222 24147 ft 439 kts 193°
2026-04-25 16:23 2.97756 -76.49879 24153 ft 442 kts 193°
2026-04-25 16:23 2.94740 -76.50537 24173 ft 444 kts 193°
2026-04-25 16:23 2.91712 -76.51198 24181 ft 445 kts 193°
2026-04-25 16:23 2.88729 -76.51849 24185 ft 445 kts 193°
2026-04-25 16:24 2.85657 -76.52520 24186 ft 445 kts 193°
2026-04-25 16:24 2.82628 -76.53181 24191 ft 445 kts 193°
2026-04-25 16:24 2.79600 -76.53842 24212 ft 445 kts 193°
2026-04-25 16:24 2.76599 -76.54497 24225 ft 447 kts 193°
2026-04-25 16:25 2.73559 -76.55160 24229 ft 447 kts 193°
2026-04-25 16:25 2.72526 -76.55386 24229 ft 447 kts 193°
2026-04-25 16:25 2.67473 -76.56488 24232 ft 447 kts 193°
2026-04-25 16:25 2.64429 -76.57152 24235 ft 447 kts 193°
2026-04-25 16:26 2.61392 -76.57815 24246 ft 448 kts 193°
2026-04-25 16:26 2.58333 -76.58482 24251 ft 448 kts 193°
2026-04-25 16:26 2.55278 -76.59149 24253 ft 448 kts 193°
2026-04-25 16:26 2.52229 -76.59814 24254 ft 448 kts 193°
2026-04-25 16:27 2.49221 -76.60467 24254 ft 449 kts 193°
2026-04-25 16:27 2.46195 -76.61051 24233 ft 448 kts 194°
2026-04-25 16:27 2.43230 -76.62123 24214 ft 448 kts 205°
2026-04-25 16:27 2.40569 -76.63729 24212 ft 447 kts 217°
2026-04-25 16:28 2.38245 -76.65780 24238 ft 446 kts 224°
2026-04-25 16:28 2.36007 -76.67927 24249 ft 445 kts 225°
2026-04-25 16:28 2.33771 -76.70079 24253 ft 445 kts 225°
2026-04-25 16:28 2.31519 -76.72211 24248 ft 445 kts 223°
2026-04-25 16:29 2.29154 -76.74211 24251 ft 445 kts 220°
2026-04-25 16:29 2.26754 -76.76175 24250 ft 445 kts 220°
2026-04-25 16:29 2.24352 -76.78131 24244 ft 445 kts 220°
2026-04-25 16:29 2.21955 -76.80083 24243 ft 444 kts 220°
2026-04-25 16:30 2.19552 -76.82039 24242 ft 444 kts 220°
2026-04-25 16:30 2.17155 -76.83992 24240 ft 444 kts 220°
2026-04-25 16:30 2.14756 -76.85945 24238 ft 444 kts 219°
2026-04-25 16:30 2.12366 -76.87891 24236 ft 444 kts 219°
2026-04-25 16:31 2.09970 -76.89842 24233 ft 444 kts 219°
2026-04-25 16:31 2.07581 -76.91787 24227 ft 443 kts 219°
2026-04-25 16:31 2.05190 -76.93733 24225 ft 443 kts 219°
2026-04-25 16:31 2.02828 -76.95655 24224 ft 443 kts 219°
2026-04-25 16:32 2.00438 -76.97600 24223 ft 443 kts 219°
2026-04-25 16:32 1.98049 -76.99545 24223 ft 443 kts 219°
2026-04-25 16:32 1.95658 -77.01490 24220 ft 443 kts 219°
2026-04-25 16:32 1.93267 -77.03437 24218 ft 443 kts 219°
2026-04-25 16:33 1.90877 -77.05381 24212 ft 443 kts 219°
2026-04-25 16:33 1.88490 -77.07324 24211 ft 442 kts 219°
2026-04-25 16:33 1.86102 -77.09267 24210 ft 442 kts 219°
2026-04-25 16:33 1.83712 -77.11211 24219 ft 442 kts 219°
2026-04-25 16:34 1.81316 -77.13150 24259 ft 445 kts 218°
2026-04-25 16:34 1.78694 -77.14802 24245 ft 446 kts 208°
2026-04-25 16:34 1.75907 -77.16087 24268 ft 447 kts 204°
2026-04-25 16:34 1.73006 -77.17218 24261 ft 448 kts 201°
2026-04-25 16:35 1.70067 -77.18268 24259 ft 448 kts 200°
2026-04-25 16:35 1.67125 -77.19307 24257 ft 448 kts 200°
2026-04-25 16:35 1.64180 -77.20348 24262 ft 448 kts 200°
2026-04-25 16:35 1.61232 -77.21391 24264 ft 449 kts 200°
2026-04-25 16:36 1.58286 -77.22433 24267 ft 449 kts 200°
2026-04-25 16:36 1.57332 -77.22771 24265 ft 449 kts 200°
2026-04-25 16:36 1.52398 -77.24516 24258 ft 448 kts 200°
2026-04-25 16:36 1.49489 -77.25545 24258 ft 448 kts 200°
2026-04-25 16:37 1.46539 -77.26589 24262 ft 448 kts 200°
2026-04-25 16:37 1.43595 -77.27631 24264 ft 448 kts 200°
2026-04-25 16:37 1.40697 -77.28799 24231 ft 448 kts 207°
2026-04-25 16:37 1.38001 -77.30360 24258 ft 448 kts 212°
2026-04-25 16:38 1.35413 -77.32106 24267 ft 448 kts 216°
2026-04-25 16:38 1.32881 -77.33919 24273 ft 447 kts 216°
2026-04-25 16:38 1.31210 -77.35119 24281 ft 447 kts 216°
2026-04-25 16:38 1.27856 -77.37523 24306 ft 448 kts 216°
2026-04-25 16:39 1.25321 -77.39338 24310 ft 448 kts 216°
2026-04-25 16:39 1.22786 -77.41151 24312 ft 448 kts 216°
2026-04-25 16:39 1.20251 -77.42964 24342 ft 449 kts 216°
2026-04-25 16:39 1.18536 -77.44192 24354 ft 449 kts 216°
2026-04-25 16:40 1.15991 -77.46012 24367 ft 450 kts 216°
2026-04-25 16:40 1.13449 -77.47830 24388 ft 450 kts 216°
2026-04-25 16:40 1.10904 -77.49651 24402 ft 450 kts 216°
2026-04-25 16:40 1.08353 -77.51475 24412 ft 451 kts 216°
2026-04-25 16:41 1.05831 -77.53279 24422 ft 451 kts 216°
2026-04-25 16:41 1.03280 -77.55103 24448 ft 451 kts 216°
2026-04-25 16:41 0.98151 -77.58772 24464 ft 452 kts 216°
2026-04-25 16:42 0.95589 -77.60604 24474 ft 452 kts 216°
2026-04-25 16:42 0.93026 -77.62437 24479 ft 453 kts 216°
2026-04-25 16:42 0.90461 -77.64272 24481 ft 453 kts 216°
2026-04-25 16:42 0.87898 -77.66104 24482 ft 453 kts 216°
2026-04-25 16:43 0.85460 -77.68038 24476 ft 452 kts 221°
2026-04-25 16:43 0.83134 -77.70163 24487 ft 451 kts 223°